Havre, MT

3:24 AM MDT on March 25, 2017 (GMT -0600)
Havre City-County

Weather History for KHVR - May, 2013

Change the Weather History Date:

Tuesday, May 28, 2013

  Actual Average Record
Temperature  
Mean Temperature 56 °F 58 °F  
Max Temperature 67 °F 71 °F 97 °F (1936)
Min Temperature 45 °F 45 °F 24 °F (1947)
Degree Days  
Heating Degree Days 9 8  
Month to date heating degree days 275 329  
Since 1 July heating degree days 7877 8066  
Cooling Degree Days 0 1  
Month to date cooling degree days 7 3  
Year to date cooling degree days 7 4  
Growing Degree Days 6 (Base 50)    
Moisture  
Dew Point 48 °F    
Average Humidity 78    
Maximum Humidity 93    
Minimum Humidity 63    
Precipitation  
Precipitation 0.05 in 0.07 in 1.84 in (1982)
Month to date precipitation 1.26 1.53  
Year to date precipitation 3.98 3.52  
Snow  
Snow 0.00 in 0.10 in 20.70 in (1982)
Month to date snowfall 0.0 1.7  
Since 1 July snowfall 50.6 38.9  
Snow Depth 0.00 in    
Sea Level Pressure  
Sea Level Pressure 29.71 in    
Wind  
Wind Speed 4 mph (WSW)    
Max Wind Speed 16 mph    
Max Gust Speed 20 mph    
Visibility 10 miles    
Events Rain , Thunderstorm    
T = Trace of Precipitation, MM = Missing Value Source: NWS Daily Summary

Daily Weather History Graph

Daily Weather History Graph

Search for Another Location

Airport or City:

Trip Planner

Search our weather history database for the weather conditions in past years. The results will help you decide how hot, cold, wet, or windy it might be!

Date:

Astronomy

May. 28, 2013 Rise Set
Actual Time 5:24 AM MDT 9:09 PM MDT
Civil Twilight 4:44 AM MDT 9:49 PM MDT
Nautical Twilight 3:49 AM MDT 10:43 PM MDT
Astronomical Twilight 2:30 AM MDT 12:04 AM MDT
Moon No Moon Rise 9:24 AM MDT (5/28)
Length of Visible Light 17h 05m
Length of Day
15h 45m
Waning Gibbous, 82% of the Moon is Illuminated
May 28
Waning Gibbous
May 31
Last Quarter
Jun 8
New
Jun 16
First Quarter
Jun 23
Full

Hourly Weather History & Observations

Time (MDT) Temp. Windchill Dew Point Humidity Pressure Visibility Wind Dir Wind Speed Gust Speed Precip Events Conditions
12:53 AM 48.9 °F - 46.0 °F 90% 29.73 in 10.0 mi Calm Calm - N/A   Clear
1:53 AM 46.9 °F - 45.0 °F 93% 29.72 in 10.0 mi WSW 3.5 mph - N/A   Scattered Clouds
2:18 AM 44.6 °F - 42.8 °F 93% 29.72 in 10.0 mi Calm Calm - N/A   Mostly Cloudy
2:53 AM 48.0 °F - 45.0 °F 89% 29.71 in 10.0 mi Calm Calm - N/A   Mostly Cloudy
3:00 AM 46.4 °F - 44.6 °F 93% 29.71 in 10.0 mi Calm Calm - N/A   Mostly Cloudy
3:39 AM 46.4 °F 43.5 °F 44.6 °F 93% 29.71 in 10.0 mi SSW 5.8 mph - N/A   Mostly Cloudy
3:53 AM 46.9 °F - 44.1 °F 90% 29.71 in 10.0 mi South 3.5 mph - N/A   Overcast
4:42 AM 46.4 °F 45.2 °F 44.6 °F 93% 29.72 in 10.0 mi West 3.5 mph - N/A   Overcast
4:53 AM 46.9 °F - 45.0 °F 93% 29.72 in 10.0 mi Calm Calm - N/A   Overcast
5:53 AM 48.0 °F - 45.0 °F 89% 29.71 in 10.0 mi Calm Calm - N/A   Overcast
6:53 AM 48.9 °F - 46.9 °F 93% 29.70 in 10.0 mi SW 5.8 mph - N/A   Overcast
7:53 AM 50.0 °F - 45.0 °F 83% 29.71 in 10.0 mi SW 10.4 mph - N/A   Overcast
8:08 AM 50.0 °F - 44.6 °F 82% 29.71 in 10.0 mi WSW 9.2 mph - N/A   Overcast
8:53 AM 52.0 °F - 46.0 °F 80% 29.72 in 10.0 mi SW 6.9 mph - N/A   Overcast
9:53 AM 55.0 °F - 48.9 °F 80% 29.72 in 10.0 mi Calm Calm - N/A   Overcast
10:08 AM 57.2 °F - 50.0 °F 77% 29.71 in 10.0 mi Calm Calm - N/A   Overcast
10:28 AM 59.0 °F - 51.8 °F 77% 29.71 in 10.0 mi Calm Calm - N/A   Overcast
10:53 AM 60.1 °F - 52.0 °F 75% 29.71 in 10.0 mi Calm Calm - N/A   Overcast
11:03 AM 60.8 °F - 51.8 °F 72% 29.71 in 10.0 mi Variable 5.8 mph - N/A   Overcast
11:16 AM 62.6 °F - 51.8 °F 68% 29.70 in 10.0 mi Variable 3.5 mph - N/A   Mostly Cloudy
11:27 AM 62.6 °F - 51.8 °F 68% 29.70 in 10.0 mi North 4.6 mph - N/A   Scattered Clouds
11:53 AM 64.0 °F - 51.1 °F 63% 29.69 in 10.0 mi Variable 3.5 mph - N/A   Mostly Cloudy
12:50 PM 64.4 °F - 50.0 °F 59% 29.69 in 10.0 mi ENE 8.1 mph - N/A Thunderstorm Mostly Cloudy
12:53 PM 66.0 °F - 48.9 °F 54% 29.68 in 10.0 mi East 6.9 mph - N/A Thunderstorm Mostly Cloudy
1:05 PM 64.4 °F - 48.2 °F 56% 29.69 in 10.0 mi East 6.9 mph - N/A   Overcast
1:20 PM 62.6 °F - 46.4 °F 55% 29.69 in 10.0 mi NNE 15.0 mph - N/A Thunderstorm Overcast
1:32 PM 60.8 °F - 50.0 °F 68% 29.69 in 10.0 mi East 6.9 mph - 0.00 in Rain , Thunderstorm Light Rain
1:43 PM 57.2 °F - 48.2 °F 72% 29.71 in 8.0 mi Variable 6.9 mph - 0.01 in Rain , Thunderstorm Thunderstorms and Rain
1:53 PM 55.9 °F - 50.0 °F 80% 29.73 in 10.0 mi NW 5.8 mph - 0.04 in Rain , Thunderstorm Light Thunderstorms and Rain
2:40 PM 53.6 °F - 50.0 °F 88% 29.72 in 10.0 mi WSW 8.1 mph - 0.01 in Rain Light Rain
2:53 PM 55.0 °F - 51.1 °F 86% 29.73 in 10.0 mi WSW 4.6 mph - 0.01 in Rain Light Rain
3:53 PM 57.0 °F - 51.1 °F 81% 29.71 in 10.0 mi SSW 5.8 mph - 0.00 in Rain Light Rain
4:53 PM 59.0 °F - 50.0 °F 72% 29.71 in 10.0 mi SW 3.5 mph - 0.00 in Rain Light Rain
5:53 PM 60.1 °F - 53.1 °F 78% 29.70 in 10.0 mi NNW 4.6 mph - 0.00 in   Clear
6:53 PM 59.0 °F - 50.0 °F 72% 29.70 in 10.0 mi NW 4.6 mph - N/A   Clear
7:53 PM 60.1 °F - 48.9 °F 67% 29.72 in 10.0 mi ENE 3.5 mph - N/A   Mostly Cloudy
8:53 PM 55.9 °F - 52.0 °F 87% 29.72 in 10.0 mi WSW 3.5 mph - N/A   Clear
9:53 PM 55.9 °F - 52.0 °F 87% 29.73 in 10.0 mi NE 4.6 mph - N/A   Overcast
10:53 PM 52.0 °F - 48.0 °F 86% 29.73 in 10.0 mi Calm Calm - N/A   Clear
11:53 PM 46.0 °F 43.1 °F 44.1 °F 93% 29.73 in 10.0 mi SSE 5.8 mph - N/A   Clear